TJS-5

Last updated on Fri Jul 11 2025 00:02:45 GMT+0000 (Coordinated Universal Time)

1 44978U 20002A 25191.64990175 -.00000330 00000+0 00000+0 0 9990 2 44978 0.0650 247.0761 0002267 248.4588 134.7204 1.00271250 20278
UTC large
Height (km)
Speed (km/s)
/
Latitude / Longitude
Inclination (degrees)
Orbital Period (minutes)
Azimuth
Elevation
Range (km)
Doppler Factor

Next 0 passes for location: London (51.5072 / 0.1276)

Sorry there are no passes over London.